[[{"header":{"parameterUnit":"m.s-1","parameterCategory":1,"la1":30.2991,"la2":30.254,"lo1":-89.0895,"lo2":-89.0444,"dy":0.0017,"dx":0.0017,"nx":28,"ny":28,"refTime":"2025-08-19T09:00:00:Z","depth":0,"parameterNumber":2,"parameterNumberName":"U-component_of_WINDS"},"data":[0,0,0,0,0,0,0,0,0,0,0,0,0,0,0,0,0,0,0,0,0,0,0,0,0,0,0,0,0,0,0,0,0,0,0,0,0,0,0,0,0,0,0,0,0,0,0,0,0,0,0,0,0,0,0,0,0,0,2.8285,2.8286,0,2.8428,2.843,2.8431,2.8461,2.846,2.8459,2.8458,2.8601,2.8606,2.8611,0,0,0,0,0,0,0,0,0,0,0,0,0,2.8033,2.8037,2.8285,2.8286,2.8288,2.8428,2.843,2.8432,2.8461,2.846,2.8458,2.8457,2.86,2.8605,2.8611,0,0,0,0,0,0,0,0,0,0,0,0,0,2.8156,2.8039,2.8284,2.832,2.8324,2.8427,2.843,2.8432,2.8461,2.846,2.8458,2.8457,2.8598,2.8605,2.8612,2.8689,0,0,2.8634,2.8637,0,0,0,0,0,0,0,0,2.8149,2.8165,2.8313,2.8318,2.8323,2.8425,2.8394,2.8518,2.8462,2.8409,2.8458,2.8456,2.8544,2.8555,2.8586,2.8696,2.8702,2.8635,2.8639,2.8642,2.8644,0,0,0,0,0,0,0,2.814,2.8159,2.8341,2.8315,2.8321,2.8327,2.8343,2.8417,2.8484,2.8414,2.8416,2.8433,2.8546,2.8579,2.8589,2.8704,2.8635,2.8641,2.8645,2.8648,2.8882,2.8884,0,0,0,0,0,0,2.8126,2.8152,2.8337,2.8346,2.823,2.8333,2.8351,2.8394,2.8483,2.8495,2.8434,2.8434,2.8567,2.8581,2.8594,2.8689,2.8642,2.8649,2.8653,2.888,2.8883,2.8885,0,0,0,0,0,0,2.812,2.8142,2.8331,2.8249,2.8274,2.8339,2.8387,2.8397,2.843,2.8498,2.851,2.8455,2.8566,2.8584,2.8665,2.8694,2.8652,2.8659,2.8878,2.8881,2.8884,2.8879,0,0,0,0,0,0,2.8113,2.814,2.8171,2.825,2.8278,2.84,2.8389,2.8401,2.8443,2.8444,2.8521,2.8533,2.8566,2.8654,2.8672,2.8703,2.8664,2.8876,2.8879,2.8883,2.8877,2.8881,2.8885,0,0,0,0,0,2.8104,2.8163,2.8172,2.8194,2.8318,2.8402,2.8418,2.8456,2.8445,2.8476,2.8519,2.853,2.8688,2.8662,2.8683,2.8717,2.8874,2.8878,2.8883,2.8875,2.888,2.8885,0,0,0,0,0,0,2.8084,2.8174,2.8185,2.8272,2.8329,2.8407,2.8446,2.8461,2.8522,2.852,2.8564,2.8582,2.8659,2.8696,2.8665,2.8795,2.8781,2.8789,2.8767,2.8773,2.8777,2.8766,2.867,0,0,0,0,0,2.8091,2.8152,2.8227,2.8296,2.8325,2.8381,2.8418,2.8443,2.8504,2.8528,2.8578,2.8635,2.8698,2.8738,2.8799,2.8883,2.8899,2.8916,2.892,2.8923,2.893,2.8975,2.8983,2.8899,2.8899,2.8898,0,0,2.8103,2.816,2.8196,2.8294,2.8341,2.8402,2.8401,2.8466,2.8511,2.8537,2.8616,2.8655,2.8722,2.8804,2.8843,2.8837,2.8957,2.8929,2.8931,2.8935,2.898,2.8988,2.8995,2.8901,2.8901,2.89,0,0,2.8157,2.8207,2.827,2.8317,2.8389,2.8426,2.8441,2.8517,2.8543,2.8624,2.8644,2.8699,2.8806,2.8852,2.889,2.8962,2.8973,2.898,2.9001,2.9045,2.9052,2.9058,2.9081,2.9089,2.8987,2.8987,2.8987,0,2.8163,2.8258,2.83,2.8364,2.8406,2.8434,2.8496,2.854,2.8628,2.8655,2.8649,2.8783,2.883,2.8923,2.894,2.897,2.8987,2.8971,2.9047,2.9054,2.906,2.9083,2.9092,2.8987,2.8987,2.8987,2.8987,0,2.8261,2.8327,2.8368,2.8453,2.85,2.8563,2.8613,2.8655,2.8676,2.8713,2.8793,2.8851,2.8924,2.8948,2.8969,2.9044,2.9038,2.9039,2.9025,2.9068,2.909,2.9099,2.8988,2.8987,2.8987,2.8987,0,0,2.8306,2.8414,2.8428,2.8466,2.8548,2.8598,2.8662,2.8734,2.8769,2.8828,2.8882,2.8972,2.8973,2.9016,2.9042,2.9081,2.9131,2.9077,2.9079,2.9083,2.9215,2.9212,2.9222,2.914,2.9142,2.9144,2.9208,0,2.8369,2.8485,2.8524,2.862,2.8679,2.8706,2.8762,2.8817,2.8853,2.8908,2.8948,2.9011,2.9009,2.9034,2.9074,2.9117,2.9158,2.9113,2.9189,2.9191,2.9169,2.9234,2.9231,2.929,2.9218,2.9219,2.922,0,2.8457,2.8518,2.862,2.8693,2.8719,2.8769,2.8838,2.8891,2.8953,2.8977,2.9024,2.9048,2.9114,2.9098,2.9189,2.9157,2.9191,2.9216,2.922,2.9227,2.9207,2.924,2.9309,2.9317,2.9235,2.9234,2.9233,0,2.8477,2.8585,2.866,2.8692,2.878,2.8813,2.8851,2.8912,2.8953,2.9013,2.9039,2.9106,2.9142,2.9192,2.9233,2.9217,2.9319,2.9307,2.9339,2.9338,2.9358,2.9356,2.9431,2.9383,2.9383,2.9382,2.9382,0,2.8541,2.8602,2.867,2.8715,2.8784,2.8828,2.8894,2.8933,2.8987,2.904,2.9068,2.9116,2.9167,2.9222,2.9254,2.9323,2.934,2.936,2.9367,2.9356,2.9353,2.9377,2.9374,2.9385,2.9384,2.9384,2.9383,0,2.8575,2.8623,2.8705,2.8782,2.8802,2.8849,2.8914,2.8958,2.8996,2.9062,2.908,2.9139,2.9205,2.9251,2.9335,2.9357,2.9431,2.9439,2.941,2.9413,2.9443,2.9438,2.9534,2.9548,2.9492,2.9492,2.9493,0,2.8612,2.8659,2.874,2.8778,2.8816,2.8877,2.8918,2.8964,2.9006,2.908,2.9115,2.9184,2.924,2.9344,2.9393,2.9458,2.9466,2.9496,2.9476,2.9463,2.9464,2.946,2.9464,2.9498,2.9498,2.9498,2.9499,0,2.8672,2.8693,2.8753,2.8821,2.887,2.8925,2.8981,2.901,2.9065,2.911,2.9179,2.9223,2.9309,2.9375,2.9445,2.9482,2.9499,2.9505,2.9515,2.9504,2.9484,2.9493,2.9416,2.9502,2.9502,2.9501,2.9501,2.9501,2.8707,2.875,2.8813,2.8879,2.8926,2.8977,2.9022,2.9066,2.9124,2.9198,2.9221,2.9291,2.9352,2.9447,2.9485,2.954,2.9538,2.9554,2.9557,2.956,2.9559,2.9477,2.9553,2.9553,2.9553,2.9553,2.9553,0,2.8767,2.8809,2.8869,2.8946,2.8997,2.901,2.9072,2.9113,2.9175,2.9231,2.9286,2.9363,2.9428,2.9483,2.9549,2.9582,2.9592,2.9598,2.9595,2.9603,2.9558,2.9541,2.9589,2.9589,2.9589,2.9589,2.9589,2.9589,2.8804,2.8876,2.8905,2.9001,2.9043,2.9112,2.9146,2.9193,2.9238,2.9323,2.9377,2.9413,2.9468,2.9539,2.9598,2.9612,2.9635,2.9639,2.9655,2.9611,2.9607,2.9602,2.9587,2.9644,2.9644,2.9695,2.9696,2.9696]},{"header":{"parameterUnit":"m.s-1","parameterCategory":1,"la1":30.2991,"la2":30.254,"lo1":-89.0895,"lo2":-89.0444,"dy":0.0017,"dx":0.0017,"nx":28,"ny":28,"refTime":"2025-08-19T09:00:00:Z","depth":0,"parameterNumber":3,"parameterNumberName":"V-component_of_WINDS"},"data":[0,0,0,0,0,0,0,0,0,0,0,0,0,0,0,0,0,0,0,0,0,0,0,0,0,0,0,0,0,0,0,0,0,0,0,0,0,0,0,0,0,0,0,0,0,0,0,0,0,0,0,0,0,0,0,0,0,0,3.2653,3.2655,0,3.2799,3.2801,3.2802,3.2782,3.278,3.2777,3.2775,3.2919,3.2925,3.2931,0,0,0,0,0,0,0,0,0,0,0,0,0,3.2351,3.2357,3.2653,3.2655,3.2657,3.2799,3.2801,3.2803,3.2783,3.278,3.2777,3.2774,3.2917,3.2925,3.2932,0,0,0,0,0,0,0,0,0,0,0,0,0,3.2488,3.2359,3.2653,3.2664,3.2667,3.2798,3.2801,3.2803,3.2783,3.278,3.2776,3.2773,3.2915,3.2924,3.2933,3.3062,0,0,3.2961,3.2965,0,0,0,0,0,0,0,0,3.248,3.2499,3.2661,3.2664,3.2667,3.2769,3.2747,3.289,3.2784,3.2739,3.2775,3.2771,3.2872,3.2884,3.2919,3.3068,3.3075,3.2962,3.2967,3.2971,3.2974,0,0,0,0,0,0,0,3.2471,3.2493,3.2711,3.2663,3.2667,3.266,3.2675,3.2774,3.2824,3.2742,3.2741,3.2759,3.2873,3.2911,3.2923,3.3077,3.2961,3.2969,3.2975,3.2979,3.3336,3.3339,0,0,0,0,0,0,3.2459,3.2485,3.2706,3.2715,3.2563,3.2668,3.2685,3.274,3.2823,3.2832,3.2762,3.2758,3.2897,3.2912,3.2928,3.3083,3.2971,3.298,3.2985,3.3332,3.3336,3.3341,0,0,0,0,0,0,3.2453,3.2479,3.27,3.26,3.2628,3.2677,3.2738,3.2744,3.2782,3.2838,3.2846,3.2792,3.2895,3.2915,3.3028,3.3087,3.2984,3.2992,3.3327,3.3333,3.3339,3.3394,0,0,0,0,0,0,3.2444,3.2477,3.2528,3.2601,3.2633,3.2801,3.2742,3.275,3.2799,3.2794,3.2868,3.2877,3.2893,3.3015,3.3037,3.3098,3.2999,3.3322,3.333,3.3337,3.3387,3.3401,3.3413,0,0,0,0,0,3.2433,3.2537,3.2531,3.2558,3.2698,3.2804,3.2822,3.2841,3.2804,3.2854,3.2889,3.2874,3.3077,3.3027,3.3052,3.3116,3.3318,3.3327,3.3336,3.3381,3.3399,3.3413,0,0,0,0,0,0,3.2469,3.2547,3.2541,3.2672,3.2732,3.2801,3.2865,3.2859,3.2929,3.2922,3.294,3.2957,3.3071,3.3105,3.3047,3.3244,3.3192,3.3207,3.3218,3.3235,3.3247,3.3237,3.3007,0,0,0,0,0,3.2492,3.2573,3.2637,3.2746,3.2776,3.2816,3.2863,3.2872,3.2934,3.2958,3.3002,3.3061,3.3137,3.3188,3.3262,3.3392,3.3406,3.3448,3.3461,3.3471,3.3484,3.3553,3.3572,3.337,3.337,3.337,0,0,3.254,3.2593,3.2643,3.2754,3.2802,3.2883,3.2837,3.2926,3.2986,3.2971,3.3081,3.3115,3.3182,3.3304,3.3359,3.3335,3.3542,3.3483,3.3491,3.3498,3.3564,3.3583,3.36,3.3376,3.3375,3.3374,0,0,3.2671,3.272,3.2815,3.2864,3.2936,3.2961,3.2984,3.3054,3.3076,3.3187,3.3177,3.3247,3.338,3.3428,3.3469,3.3615,3.3603,3.3638,3.3706,3.3773,3.3789,3.3803,3.3854,3.3872,3.365,3.365,3.365,0,3.2721,3.2846,3.2865,3.2955,3.3003,3.2994,3.309,3.3135,3.3228,3.326,3.3232,3.3397,3.3441,3.3573,3.3608,3.3643,3.3668,3.363,3.3786,3.38,3.3814,3.3862,3.3881,3.3654,3.3654,3.3653,3.3653,0,3.2904,3.2991,3.3059,3.315,3.3205,3.3297,3.3328,3.3382,3.3385,3.3412,3.3524,3.3576,3.366,3.3692,3.3696,3.3824,3.3806,3.3782,3.373,3.3836,3.3882,3.3901,3.3659,3.3658,3.3657,3.3656,0,0,3.3062,3.3161,3.3186,3.3226,3.3304,3.3371,3.3461,3.3544,3.3589,3.3652,3.3727,3.3838,3.3816,3.3863,3.3871,3.393,3.4041,3.3898,3.39,3.3922,3.4183,3.4201,3.4222,3.4033,3.4036,3.4039,3.4177,0,3.32,3.3362,3.3381,3.3524,3.3603,3.3595,3.3673,3.3728,3.3755,3.3824,3.3853,3.3932,3.3896,3.3924,3.3982,3.4015,3.4093,3.4005,3.4101,3.4104,3.4085,3.4246,3.4266,3.4394,3.4195,3.4198,3.42,0,3.3382,3.3452,3.3604,3.367,3.3703,3.3774,3.385,3.3917,3.3978,3.3993,3.4045,3.4046,3.4136,3.4081,3.4205,3.4145,3.4185,3.4206,3.4211,3.4221,3.4159,3.426,3.4435,3.4454,3.4229,3.4227,3.4225,0,3.3481,3.3612,3.372,3.3755,3.3834,3.3884,3.3919,3.3977,3.4025,3.409,3.4121,3.4196,3.4237,3.4294,3.4314,3.4272,3.4436,3.4383,3.445,3.445,3.4486,3.4483,3.4669,3.4512,3.4511,3.4511,3.4511,0,3.3633,3.3726,3.3766,3.3832,3.3935,3.3954,3.4054,3.4087,3.4138,3.4208,3.4204,3.427,3.4292,3.4361,3.4376,3.4476,3.4494,3.4508,3.4511,3.4508,3.4507,3.4535,3.4526,3.4516,3.4515,3.4514,3.4513,0,3.3761,3.3792,3.3908,3.3974,3.3993,3.4065,3.412,3.4183,3.4208,3.4297,3.4319,3.4359,3.4439,3.4464,3.4561,3.4571,3.4687,3.4682,3.4667,3.4668,3.4733,3.4726,3.4943,3.4972,3.4796,3.4798,3.4799,0,3.3856,3.3928,3.4001,3.4049,3.4086,3.4163,3.4212,3.4232,3.4282,3.4356,3.4409,3.4489,3.4555,3.4683,3.4719,3.4792,3.4789,3.486,3.48,3.4794,3.4789,3.4784,3.4791,3.4871,3.4873,3.4874,3.4875,0,3.4021,3.4032,3.4104,3.4181,3.424,3.4301,3.4359,3.4398,3.4426,3.4483,3.4566,3.4616,3.4715,3.4793,3.4868,3.4901,3.4893,3.4894,3.4913,3.4911,3.4899,3.4906,3.4698,3.4889,3.4888,3.4887,3.4886,3.4885,3.4135,3.4198,3.4259,3.4338,3.4385,3.4439,3.4501,3.4534,3.4604,3.4687,3.4694,3.4783,3.4839,3.4938,3.4975,3.5043,3.5023,3.5051,3.5058,3.5065,3.507,3.4889,3.5057,3.5056,3.5056,3.5056,3.5056,0,3.4299,3.4338,3.4411,3.4493,3.4555,3.4543,3.4606,3.4658,3.4737,3.4792,3.4856,3.495,3.5025,3.5067,3.5141,3.5188,3.5186,3.5207,3.5203,3.5211,3.5084,3.506,3.5207,3.5207,3.5207,3.5207,3.5207,3.5207,3.4392,3.4497,3.4515,3.4641,3.4678,3.4767,3.4804,3.4853,3.4897,3.5002,3.5066,3.5092,3.5141,3.5219,3.5287,3.5296,3.5324,3.5347,3.5355,3.5236,3.522,3.5205,3.5182,3.5353,3.5353,3.5476,3.5477,3.5478]}]]